{"data":{"norad_id":66178,"epoch":"2026-09-20T14:11:11.941152Z","epoch_age_seconds":92490,"freshness":"FRESH","line1":"1 66178U 25243B   26263.59111043  .00019283  00000+0  58023-3 0  9990","line2":"2 66178  53.1580  57.1459 0001097  80.1177 279.9950 15.34407834 50537","mean_motion":15.34407834,"eccentricity":0.0001097,"inclination_deg":53.158,"raan_deg":57.1459,"arg_perigee_deg":80.1177,"mean_anomaly_deg":279.995,"bstar":0.00058023,"rev_number":5053,"period_min":93.847278936664,"perigee_km":461.92951838716,"apogee_km":463.43039362731,"semimajor_km":6840.8169560072,"source":"CELESTRAK","updated_at":"2026-09-21T09:00:35.833311Z"}}